User: anonymous   Login
Location: Unspecified
(0.0000°N, 0.0000°E)
Time: 06:18:58
(UTC+00:00)
Language:

ASUSAT - Orbit

View from above orbital plane
View from above orbital plane
View from above satellite
View from above satellite

Ground track
Ground track

The orbit data is extracted from the following two-line orbital elements,

1 26065U 00004E   18125.87447132 0.00000040  00000-0  13447-4 0    06
2 26065 100.2039 196.2583 0036731 115.9867 244.0132 14.36835645    08
Epoch (UTC): 05 May 2018 20:59:14
Eccentricity: 0.0036731
inclination: 100.2039°
perigee height: 743 km
apogee height: 795 km
right ascension of ascending node: 196.2583°
argument of perigee: 115.9867°
revolutions per day: 14.36835645
mean anomaly at epoch: 244.0132°
orbit number at epoch: 0

The dashed part of the orbit path shows where the satellite is in the earth's shadow,  

DLR